[[{"header":{"parameterUnit":"m.s-1","parameterCategory":1,"la1":30.2991,"la2":30.254,"lo1":-89.0895,"lo2":-89.0444,"dy":0.0017,"dx":0.0017,"nx":28,"ny":28,"refTime":"2025-07-04T03:00:00:Z","depth":0,"parameterNumber":2,"parameterNumberName":"U-component_of_WINDS"},"data":[0,0,0,0,0,0,0,0,0,0,0,0,0,0,0,0,0,0,0,0,0,0,0,0,0,0,0,0,0,0,0,0,0,0,0,0,0,0,0,0,0,0,0,0,0,0,0,0,0,0,0,0,0,0,0,0,0,0,-0.5535,-0.5536,0,-0.5671,-0.5673,-0.5674,-0.5684,-0.5682,-0.5681,-0.568,-0.5821,-0.5826,-0.5831,0,0,0,0,0,0,0,0,0,0,0,0,0,-0.5286,-0.529,-0.5535,-0.5537,-0.5538,-0.5671,-0.5673,-0.5675,-0.5684,-0.5682,-0.5681,-0.5679,-0.5819,-0.5826,-0.5832,0,0,0,0,0,0,0,0,0,0,0,0,0,-0.5405,-0.5292,-0.5535,-0.5559,-0.5563,-0.567,-0.5673,-0.5675,-0.5685,-0.5682,-0.568,-0.5678,-0.5817,-0.5825,-0.5833,-0.5926,0,0,-0.5856,-0.586,0,0,0,0,0,0,0,0,-0.5398,-0.5414,-0.5554,-0.5558,-0.5562,-0.5658,-0.5637,-0.5759,-0.5685,-0.5638,-0.5679,-0.5677,-0.5769,-0.5781,-0.5811,-0.5933,-0.5939,-0.5857,-0.5862,-0.5865,-0.5867,0,0,0,0,0,0,0,-0.539,-0.5408,-0.5589,-0.5556,-0.5561,-0.5564,-0.5578,-0.566,-0.5715,-0.5642,-0.5643,-0.5659,-0.5771,-0.5804,-0.5814,-0.5941,-0.5857,-0.5864,-0.5869,-0.5872,-0.6147,-0.6149,0,0,0,0,0,0,-0.5377,-0.5401,-0.5585,-0.5593,-0.5473,-0.557,-0.5586,-0.563,-0.5714,-0.5725,-0.5661,-0.5659,-0.5791,-0.5805,-0.582,-0.5936,-0.5865,-0.5872,-0.5877,-0.6144,-0.6147,-0.615,0,0,0,0,0,0,-0.5371,-0.5393,-0.5579,-0.5498,-0.5521,-0.5577,-0.5625,-0.5633,-0.5666,-0.5728,-0.5738,-0.5684,-0.579,-0.5809,-0.59,-0.5941,-0.5876,-0.5883,-0.6141,-0.6145,-0.6149,-0.6168,0,0,0,0,0,0,-0.5364,-0.5391,-0.5427,-0.5498,-0.5526,-0.5656,-0.5628,-0.5638,-0.568,-0.5678,-0.5753,-0.5763,-0.579,-0.5888,-0.5907,-0.595,-0.5889,-0.6138,-0.6143,-0.6148,-0.6164,-0.6172,-0.6179,0,0,0,0,0,-0.5355,-0.5427,-0.5428,-0.545,-0.5571,-0.5659,-0.5674,-0.5703,-0.5683,-0.572,-0.5759,-0.5761,-0.5932,-0.5897,-0.5919,-0.5965,-0.6135,-0.6141,-0.6147,-0.616,-0.617,-0.6178,0,0,0,0,0,0,-0.5359,-0.5437,-0.5439,-0.5536,-0.559,-0.566,-0.5707,-0.5713,-0.5775,-0.5772,-0.5805,-0.5822,-0.5912,-0.5947,-0.5907,-0.606,-0.6032,-0.6042,-0.6034,-0.6044,-0.6051,-0.6042,-0.5895,0,0,0,0,0,-0.5371,-0.5435,-0.5499,-0.5578,-0.5605,-0.5652,-0.5691,-0.5708,-0.5766,-0.579,-0.5836,-0.5893,-0.596,-0.6004,-0.6069,-0.6168,-0.6185,-0.621,-0.6218,-0.6224,-0.6233,-0.6289,-0.6302,-0.617,-0.617,-0.617,0,0,-0.5397,-0.5447,-0.5485,-0.558,-0.5625,-0.5691,-0.5671,-0.5742,-0.5791,-0.5801,-0.589,-0.5925,-0.5992,-0.6087,-0.6132,-0.6119,-0.6273,-0.6231,-0.6235,-0.6242,-0.6297,-0.6309,-0.632,-0.6174,-0.6173,-0.6173,0,0,-0.5478,-0.5522,-0.5593,-0.5638,-0.5705,-0.5735,-0.5752,-0.5821,-0.5845,-0.5934,-0.5943,-0.6003,-0.6117,-0.6164,-0.6203,-0.6301,-0.6305,-0.6321,-0.6361,-0.6416,-0.6426,-0.6436,-0.6472,-0.6485,-0.633,-0.633,-0.633,0,-0.5502,-0.5601,-0.5629,-0.57,-0.5742,-0.5752,-0.5825,-0.5867,-0.5953,-0.5982,-0.5966,-0.611,-0.6155,-0.6263,-0.6287,-0.6317,-0.6339,-0.6314,-0.6422,-0.6432,-0.6441,-0.6477,-0.649,-0.6332,-0.6331,-0.6331,-0.6331,0,-0.5628,-0.5697,-0.5746,-0.5828,-0.5875,-0.5947,-0.5986,-0.6031,-0.6044,-0.6076,-0.6167,-0.6221,-0.6298,-0.6324,-0.6338,-0.6434,-0.6424,-0.6415,-0.6388,-0.6455,-0.6489,-0.6502,-0.6334,-0.6333,-0.6333,-0.6333,0,0,-0.5717,-0.5812,-0.583,-0.5868,-0.5942,-0.5997,-0.6068,-0.6143,-0.6181,-0.6239,-0.6301,-0.6398,-0.639,-0.6434,-0.6452,-0.65,-0.6576,-0.6485,-0.6487,-0.6501,-0.6687,-0.6695,-0.671,-0.6578,-0.6581,-0.6583,-0.6682,0,-0.5808,-0.5936,-0.5963,-0.6074,-0.6138,-0.6149,-0.6212,-0.6265,-0.6296,-0.6356,-0.6391,-0.646,-0.6443,-0.647,-0.6517,-0.6557,-0.6614,-0.655,-0.6638,-0.6641,-0.6623,-0.6727,-0.6736,-0.6826,-0.6695,-0.6697,-0.6699,0,-0.5931,-0.5992,-0.6109,-0.6176,-0.6204,-0.626,-0.633,-0.6387,-0.6447,-0.6467,-0.6516,-0.653,-0.6606,-0.6573,-0.6679,-0.6635,-0.6672,-0.6697,-0.6701,-0.6712,-0.6675,-0.6742,-0.6856,-0.687,-0.672,-0.6718,-0.6716,0,-0.5986,-0.6097,-0.6182,-0.6213,-0.6292,-0.6332,-0.6367,-0.6425,-0.6468,-0.6529,-0.6558,-0.6627,-0.6666,-0.672,-0.6753,-0.6725,-0.6857,-0.6826,-0.6876,-0.6876,-0.6905,-0.6903,-0.7028,-0.6926,-0.6926,-0.6926,-0.6925,0,-0.6085,-0.6157,-0.6208,-0.626,-0.6341,-0.6371,-0.6451,-0.6486,-0.6537,-0.6597,-0.661,-0.6666,-0.6705,-0.6767,-0.6792,-0.6877,-0.6894,-0.6913,-0.6919,-0.6913,-0.6911,-0.6939,-0.6935,-0.6929,-0.6929,-0.6928,-0.6927,0,-0.6161,-0.6198,-0.6291,-0.6358,-0.6377,-0.6434,-0.6492,-0.6543,-0.6574,-0.665,-0.667,-0.6719,-0.6793,-0.683,-0.6921,-0.6939,-0.7035,-0.7036,-0.7014,-0.7017,-0.7066,-0.7061,-0.7214,-0.7237,-0.7119,-0.712,-0.7121,0,-0.6223,-0.6279,-0.6352,-0.6392,-0.6428,-0.6494,-0.6537,-0.6569,-0.6614,-0.6687,-0.6731,-0.6804,-0.6865,-0.6982,-0.7027,-0.7097,-0.7102,-0.715,-0.7112,-0.7104,-0.7104,-0.7101,-0.7108,-0.7158,-0.7159,-0.716,-0.716,0,-0.633,-0.6345,-0.6407,-0.6476,-0.6528,-0.6584,-0.6639,-0.6672,-0.6713,-0.6763,-0.6838,-0.6885,-0.6978,-0.7052,-0.7125,-0.7162,-0.7169,-0.7172,-0.7187,-0.7182,-0.7168,-0.7178,-0.7035,-0.7169,-0.7168,-0.7167,-0.7167,-0.7166,-0.6402,-0.6452,-0.6511,-0.6581,-0.6625,-0.6676,-0.6729,-0.6766,-0.6829,-0.6907,-0.6922,-0.7001,-0.7061,-0.716,-0.7199,-0.7262,-0.7252,-0.7274,-0.728,-0.7286,-0.7289,-0.7156,-0.7276,-0.7275,-0.7275,-0.7275,-0.7275,0,-0.6511,-0.6549,-0.6612,-0.6689,-0.6744,-0.6744,-0.6805,-0.6851,-0.6921,-0.6975,-0.7034,-0.7121,-0.7192,-0.7242,-0.7315,-0.7356,-0.7361,-0.7374,-0.7372,-0.7381,-0.7293,-0.7273,-0.7369,-0.7369,-0.7369,-0.7369,-0.7369,-0.7369,-0.6574,-0.6659,-0.6681,-0.6789,-0.6827,-0.6905,-0.694,-0.6988,-0.7031,-0.7127,-0.7186,-0.7218,-0.7271,-0.7348,-0.7413,-0.7426,-0.7453,-0.7467,-0.748,-0.7397,-0.7387,-0.7378,-0.7359,-0.7472,-0.7472,-0.7563,-0.7564,-0.7564]},{"header":{"parameterUnit":"m.s-1","parameterCategory":1,"la1":30.2991,"la2":30.254,"lo1":-89.0895,"lo2":-89.0444,"dy":0.0017,"dx":0.0017,"nx":28,"ny":28,"refTime":"2025-07-04T03:00:00:Z","depth":0,"parameterNumber":3,"parameterNumberName":"V-component_of_WINDS"},"data":[0,0,0,0,0,0,0,0,0,0,0,0,0,0,0,0,0,0,0,0,0,0,0,0,0,0,0,0,0,0,0,0,0,0,0,0,0,0,0,0,0,0,0,0,0,0,0,0,0,0,0,0,0,0,0,0,0,0,-3.0106,-3.0106,0,-3.0105,-3.0105,-3.0105,-3.0043,-3.0042,-3.004,-3.0039,-3.0038,-3.0039,-3.0041,0,0,0,0,0,0,0,0,0,0,0,0,0,-3.0054,-3.0056,-3.0106,-3.0106,-3.0106,-3.0105,-3.0105,-3.0105,-3.0044,-3.0042,-3.004,-3.0038,-3.0038,-3.0039,-3.0041,0,0,0,0,0,0,0,0,0,0,0,0,0,-3.0067,-3.0056,-3.0106,-3.0075,-3.0073,-3.0105,-3.0105,-3.0105,-3.0044,-3.0042,-3.0039,-3.0037,-3.0037,-3.0039,-3.0041,-3.0104,0,0,-3.0048,-3.0049,0,0,0,0,0,0,0,0,-3.0067,-3.0069,-3.008,-3.0078,-3.0075,-3.0072,-3.0087,-3.0105,-3.0045,-3.0055,-3.0039,-3.0036,-3.0051,-3.0052,-3.0057,-3.0103,-3.0103,-3.0048,-3.005,-3.0051,-3.0051,0,0,0,0,0,0,0,-3.0066,-3.0069,-3.0106,-3.008,-3.0077,-3.0061,-3.0061,-3.009,-3.0067,-3.0054,-3.0049,-3.005,-3.0049,-3.0055,-3.0057,-3.0103,-3.0048,-3.005,-3.0052,-3.0053,-3.0199,-3.0202,0,0,0,0,0,0,-3.0069,-3.0069,-3.0106,-3.0106,-3.0065,-3.0064,-3.0063,-3.0075,-3.0066,-3.0063,-3.0052,-3.0047,-3.0053,-3.0054,-3.0057,-3.0128,-3.0051,-3.0053,-3.0054,-3.0197,-3.02,-3.0203,0,0,0,0,0,0,-3.0068,-3.0073,-3.0106,-3.0086,-3.0089,-3.0068,-3.0082,-3.0077,-3.0082,-3.0065,-3.006,-3.0063,-3.0051,-3.0053,-3.0092,-3.0127,-3.0054,-3.0056,-3.0194,-3.0198,-3.0201,-3.0272,0,0,0,0,0,0,-3.0067,-3.0073,-3.0097,-3.0087,-3.009,-3.0142,-3.0084,-3.0078,-3.0086,-3.008,-3.0074,-3.007,-3.0049,-3.0089,-3.0094,-3.0129,-3.0057,-3.0191,-3.0196,-3.02,-3.0267,-3.0278,-3.0288,0,0,0,0,0,-3.0066,-3.0117,-3.0098,-3.0103,-3.0119,-3.0144,-3.0146,-3.0121,-3.009,-3.0113,-3.0101,-3.007,-3.0123,-3.0094,-3.0099,-3.0135,-3.0188,-3.0194,-3.02,-3.0262,-3.0276,-3.0288,0,0,0,0,0,0,-3.0132,-3.0115,-3.0094,-3.0144,-3.0146,-3.0133,-3.0162,-3.0136,-3.0147,-3.014,-3.0108,-3.0108,-3.0151,-3.0147,-3.0115,-3.0194,-3.015,-3.0157,-3.0195,-3.0208,-3.0219,-3.0219,-3.0059,0,0,0,0,0,-3.0153,-3.0174,-3.0158,-3.0204,-3.0206,-3.0184,-3.0194,-3.0174,-3.0174,-3.0175,-3.0166,-3.0168,-3.0184,-3.0196,-3.0211,-3.0266,-3.0263,-3.0293,-3.0304,-3.0312,-3.0319,-3.0347,-3.036,-3.0222,-3.0222,-3.0222,0,0,-3.0195,-3.0189,-3.0204,-3.0217,-3.0216,-3.0238,-3.0185,-3.0211,-3.0228,-3.0179,-3.0214,-3.0208,-3.0208,-3.0255,-3.0275,-3.0253,-3.0356,-3.032,-3.0327,-3.0329,-3.0354,-3.0367,-3.0379,-3.0226,-3.0225,-3.0224,0,0,-3.0285,-3.0282,-3.0319,-3.0319,-3.0318,-3.0303,-3.0312,-3.0303,-3.0297,-3.0332,-3.0296,-3.0315,-3.0344,-3.0345,-3.0349,-3.0438,-3.0409,-3.0444,-3.0499,-3.0526,-3.0537,-3.0547,-3.0578,-3.0589,-3.045,-3.045,-3.045,0,-3.0338,-3.037,-3.0342,-3.037,-3.0377,-3.0333,-3.037,-3.0371,-3.0375,-3.038,-3.0355,-3.0391,-3.0387,-3.0434,-3.0455,-3.046,-3.0469,-3.0444,-3.0538,-3.0547,-3.0556,-3.0585,-3.0597,-3.0454,-3.0454,-3.0453,-3.0453,0,-3.0435,-3.0458,-3.0489,-3.0493,-3.0502,-3.0535,-3.0511,-3.0525,-3.0504,-3.0492,-3.0528,-3.0522,-3.0534,-3.0544,-3.0524,-3.0587,-3.0573,-3.0544,-3.0498,-3.0573,-3.06,-3.0611,-3.046,-3.0459,-3.0458,-3.0457,0,0,-3.0568,-3.0554,-3.0566,-3.0567,-3.0562,-3.0579,-3.0609,-3.0621,-3.0632,-3.0636,-3.0661,-3.0686,-3.0659,-3.0664,-3.0644,-3.0668,-3.0738,-3.0635,-3.0635,-3.0654,-3.0806,-3.0828,-3.0842,-3.0719,-3.0721,-3.0722,-3.0806,0,-3.0653,-3.0704,-3.0679,-3.0733,-3.0754,-3.0712,-3.0738,-3.0738,-3.0727,-3.0743,-3.0731,-3.0749,-3.0711,-3.0714,-3.0736,-3.0725,-3.0768,-3.0718,-3.0741,-3.0742,-3.0742,-3.0856,-3.088,-3.0959,-3.0816,-3.0818,-3.0819,0,-3.0761,-3.0768,-3.0824,-3.0814,-3.0822,-3.0846,-3.0854,-3.0869,-3.0868,-3.0858,-3.0864,-3.0837,-3.0866,-3.0822,-3.0861,-3.0828,-3.0836,-3.0831,-3.0834,-3.0835,-3.0785,-3.086,-3.0984,-3.0995,-3.0836,-3.0835,-3.0833,0,-3.0851,-3.0875,-3.0911,-3.0913,-3.0903,-3.0921,-3.0917,-3.0913,-3.0921,-3.0928,-3.0933,-3.0944,-3.0949,-3.0958,-3.0935,-3.0905,-3.0978,-3.0931,-3.097,-3.0971,-3.0987,-3.0987,-3.1114,-3.0993,-3.0993,-3.0993,-3.0992,0,-3.0949,-3.0985,-3.0951,-3.0974,-3.1012,-3.0983,-3.1022,-3.1014,-3.101,-3.103,-3.0995,-3.1015,-3.0983,-3.1,-3.0982,-3.1017,-3.102,-3.1013,-3.1008,-3.1016,-3.1017,-3.1021,-3.1014,-3.0996,-3.0995,-3.0994,-3.0994,0,-3.1057,-3.1035,-3.1072,-3.1059,-3.1056,-3.1085,-3.1074,-3.1094,-3.108,-3.1105,-3.111,-3.1088,-3.1106,-3.1084,-3.11,-3.1088,-3.1135,-3.1122,-3.1135,-3.1131,-3.1171,-3.1168,-3.1305,-3.1322,-3.1191,-3.1192,-3.1193,0,-3.1121,-3.1147,-3.1136,-3.1147,-3.1145,-3.1163,-3.117,-3.1142,-3.1151,-3.1151,-3.1171,-3.1185,-3.1195,-3.1225,-3.1211,-3.1222,-3.1209,-3.1256,-3.1211,-3.1218,-3.1209,-3.1208,-3.121,-3.1266,-3.1267,-3.1269,-3.127,0,-3.1237,-3.1225,-3.1237,-3.1246,-3.1256,-3.1262,-3.1265,-3.1275,-3.1245,-3.1258,-3.1275,-3.1282,-3.1298,-3.1312,-3.132,-3.1316,-3.1288,-3.1284,-3.1294,-3.1302,-3.1309,-3.1305,-3.1161,-3.1281,-3.128,-3.1279,-3.1279,-3.1278,-3.1324,-3.1346,-3.1341,-3.1355,-3.1354,-3.1358,-3.1375,-3.1363,-3.1377,-3.1387,-3.1369,-3.139,-3.1387,-3.1394,-3.1394,-3.141,-3.139,-3.1404,-3.1407,-3.1411,-3.1417,-3.1307,-3.1411,-3.1411,-3.1411,-3.141,-3.141,0,-3.1438,-3.1433,-3.1447,-3.1451,-3.1463,-3.1434,-3.1436,-3.1448,-3.1467,-3.1466,-3.1476,-3.1495,-3.1508,-3.1495,-3.1506,-3.1522,-3.1509,-3.1526,-3.1524,-3.1524,-3.1435,-3.1425,-3.1536,-3.1535,-3.1535,-3.1535,-3.1535,-3.1535,-3.1499,-3.1533,-3.152,-3.1553,-3.1547,-3.1567,-3.157,-3.1573,-3.1572,-3.1594,-3.1605,-3.1596,-3.159,-3.16,-3.1612,-3.1607,-3.1613,-3.1634,-3.1625,-3.1542,-3.153,-3.1518,-3.1509,-3.1635,-3.1635,-3.1713,-3.1713,-3.1714]}]]